Content
SEND FEEDBACK

Daily
Averages
Monthly
Summary
French Polynesia

PAPEETE, FRENCH POLYNESIA


Home > Oceania > French Polynesia
Elevation: 7 feet     Latitude: 17 33S     Longitude: 149 36W

WEATHER
 
SELECT A DAY
Number of Records: 208,134;   Date Range: 6/30/96 - 7/23/14
 
SHARE

PRINT THIS DATA

[ ← Previous Day ]
WEATHER ALMANAC - JANUARY 11, 2013
[ Next Day → ]
[ °C ]   °F
Weather ElementAverageHighLow
Temperature80.8 °F87.8 °F (12:00 pm)75 °F (5:00 am)
Dewpoint71.5 °F75.2 °F (3:00 pm)69.8 °F (12:30 am)
Humidity72.6 %89 % (3:30 am)53 % (11:00 am)
Barometer29.85 in29.89 in (8:30 pm)29.80 in (1:30 am)
Wind Speed4.8 mph17.9 mph (2:00 pm)
Wind Gust35.7 mph (3:30 am)
Weather ElementAverage
Visibility7.1 mi
Wind DirectionESE (99.3 °)

Weather ElementTotal
Precipitation---
Cooling Degree Days16.4 (Base 65)
Growing Degree Days31.4 (Base 50)
Averaged from 55 records on January 11, 2013
WEATHER CONDITIONS BREAKOUT
WIND DIRECTION BREAKOUT
WEATHER BY HOUR - JANUARY 11, 2013
[ °C ]   °F
Local TimeTemperatureDewpointHumidityBarometerVisibilityWind DirectionWind SpeedGust SpeedPrecipitationEventsConditions
12:30 AM77.0 °F69.8 °F78 %29.83 in6.2 miENE (60°)3.5 mphScattered Clouds
1:00 AM78.8 °F69.8 °F74 %29.83 in6.2 miEast (80°)2.3 mphScattered Clouds
1:30 AM78.8 °F71.6 °F78 %29.80 in6.2 miENE (60°)4.6 mphMostly Cloudy
2:00 AM79.0 °F70.0 °F68 %29.82 in9.0 miEast (80°)6.7 mphThunderstormThunderstorm
2:00 AM78.8 °F69.8 °F74 %29.80 in6.2 miEast (80°)3.5 mphThunderstormMostly Cloudy
2:30 AM78.8 °F69.8 °F74 %29.80 in6.2 miEast (80°)3.5 mphMostly Cloudy
3:00 AM78.8 °F71.6 °F78 %29.83 in6.2 miSouth (180°)8.1 mphMostly Cloudy
3:30 AM75.2 °F71.6 °F89 %29.83 in0.4 miWSW (250°)15.0 mph35.7 mphRainHeavy Rain
4:00 AM75.2 °F71.6 °F89 %29.83 in3.7 miSouth (180°)6.9 mphRainLight Rain
4:30 AM75.2 °F71.6 °F89 %29.83 in6.2 miSouth (180°)4.6 mphRainLight Rain
5:00 AM75.0 °F70.0 °F80 %29.86 in37.0 miSSE (160°)13.4 mphRainLight Rain
5:00 AM75.2 °F69.8 °F83 %29.83 in6.2 miSSE (160°)6.9 mphRainLight Rain
5:30 AM75.2 °F69.8 °F83 %29.86 in6.2 miSouth (170°)6.9 mphRainLight Rain
6:00 AM75.2 °F69.8 °F83 %29.86 in6.2 miSouth (170°)3.5 mphMostly Cloudy
6:30 AM77.0 °F71.6 °F83 %29.86 in6.2 miVariable2.3 mphMostly Cloudy
7:00 AM78.8 °F69.8 °F74 %29.86 in6.2 miEast (90°)2.3 mphMostly Cloudy
7:30 AM80.6 °F71.6 °F74 %29.86 in6.2 miVariable3.5 mphMostly Cloudy
8:00 AM83.0 °F71.0 °F59 %29.87 in12.0 miNorth (10°)6.7 mphPartly Cloudy
8:00 AM84.2 °F69.8 °F62 %29.86 in6.2 miNorth (10°)3.5 mphMostly Cloudy
8:30 AM84.2 °F69.8 °F62 %29.86 in6.2 miNW (320°)3.5 mphScattered Clouds
9:00 AM86.0 °F69.8 °F58 %29.86 in6.2 miNW (320°)4.6 mphScattered Clouds
9:30 AM86.0 °F71.6 °F62 %29.86 in6.2 miNNW (340°)4.6 mphScattered Clouds
10:00 AM86.0 °F71.6 °F62 %29.86 in6.2 miVariable3.5 mphScattered Clouds
10:30 AM86.0 °F73.4 °F66 %29.86 in6.2 miNorth (10°)3.5 mphScattered Clouds
11:00 AM86.0 °F71.0 °F53 %29.88 in16.0 miNNW (340°)6.7 mphPartly Cloudy
11:00 AM86.0 °F71.6 °F62 %29.86 in6.2 miVariable3.5 mphScattered Clouds
11:30 AM86.0 °F71.6 °F62 %29.86 in6.2 miNorth (10°)6.9 mphScattered Clouds
12:00 PM87.8 °F71.6 °F58 %29.86 in6.2 miNNE (20°)4.6 mphScattered Clouds
12:30 PM87.8 °F71.6 °F58 %29.86 in6.2 miNorth (10°)3.5 mphScattered Clouds
1:00 PM86.0 °F71.6 °F62 %29.86 in6.2 miNNE (20°)4.6 mphScattered Clouds
1:30 PM84.2 °F73.4 °F70 %29.83 in6.2 miNNE (30°)6.9 mphMostly Cloudy
2:00 PM84.0 °F74.0 °F64 %29.84 in6.0 miNNE (30°)17.9 mphMostly Cloudy
2:00 PM84.2 °F73.4 °F70 %29.83 in6.2 miNNE (30°)9.2 mphMostly Cloudy
2:30 PM80.6 °F73.4 °F79 %29.83 in6.2 miSSE (160°)4.6 mphRainLight Rain
3:00 PM82.4 °F75.2 °F79 %29.83 in6.2 miCalmMostly Cloudy
3:30 PM82.4 °F73.4 °F74 %29.83 in6.2 miNorth (360°)4.6 mphMostly Cloudy
4:00 PM80.6 °F73.4 °F79 %29.83 in6.2 miNNE (30°)6.9 mphMostly Cloudy
4:30 PM80.6 °F73.4 °F79 %29.83 in6.2 miNE (40°)4.6 mphMostly Cloudy
5:00 PM82.0 °F72.0 °F66 %29.84 in9.0 miEast (90°)5.8 mphPartly Cloudy
5:00 PM82.4 °F71.6 °F70 %29.83 in6.2 miEast (90°)5.8 mphMostly Cloudy
5:30 PM82.4 °F71.6 °F70 %29.83 in6.2 miVariable3.5 mphMostly Cloudy
6:00 PM82.4 °F71.6 °F70 %29.86 in6.2 miNNE (30°)3.5 mphMostly Cloudy
6:30 PM82.4 °F71.6 °F70 %29.86 in6.2 miNNE (20°)5.8 mphMostly Cloudy
7:00 PM80.6 °F71.6 °F74 %29.86 in6.2 miENE (60°)4.6 mphMostly Cloudy
7:30 PM80.6 °F71.6 °F74 %29.86 in6.2 miEast (100°)2.3 mphMostly Cloudy
8:00 PM80.0 °F72.0 °F71 %29.88 in9.0 miESE (110°)2.3 mphMostly Cloudy
8:00 PM78.8 °F71.6 °F78 %29.86 in6.2 miVariable2.3 mphMostly Cloudy
8:30 PM78.8 °F71.6 °F78 %29.89 in6.2 miSouth (190°)4.6 mphMostly Cloudy
9:00 PM78.8 °F71.6 °F78 %29.89 in6.2 miSSE (160°)2.3 mphMostly Cloudy
9:30 PM78.8 °F71.6 °F78 %29.89 in6.2 miCalmMostly Cloudy
10:00 PM78.8 °F71.6 °F78 %29.89 in6.2 miSSE (160°)2.3 mphMostly Cloudy
10:30 PM78.8 °F71.6 °F78 %29.86 in6.2 miESE (110°)2.3 mphMostly Cloudy
11:00 PM78.0 °F72.0 °F75 %29.88 in12.0 miSSE (160°)1.2 mphScattered Clouds
11:00 PM78.8 °F71.6 °F78 %29.86 in6.2 miVariable1.2 mphScattered Clouds
11:30 PM77.0 °F69.8 °F78 %29.86 in6.2 miESE (110°)2.3 mphScattered Clouds
Hourly data recorded from NTAA, located miles away from Papeete, French Polynesia







STORIES FROM OUR PARTNERS